Location: Usti nad Labem
(50.6670°N, 14.0330°E)
Time: 23:44:01
(UTC+01:00)

ISS - Pass Details

Date: 04 December 2023
Orbit: 415 x 423 km, 51.6° (Epoch: 24 February)

Event Time Altitude Azimuth Distance (km) Brightness Sun altitude
Rises 17:27:55 0° 285° (WNW) 2,411 1.1 -13.1°
Reaches altitude 10° 17:30:13 10° 273° (W) 1,545 0.3 -13.4°
Maximum altitude 17:33:12 27° 214° (SW) 869 -1.6 -13.9°
Drops below altitude 10° 17:36:13 10° 154° (SSE) 1,549 -1.0 -14.3°
Enters shadow 17:38:26 - 142° (SE) 2,381 -0.1 -14.7°
